Terminal Aerodrome Forecast
Issued by NWS

Home | Current Version | Previous Version | Text Only | Print | Product List | Glossary On
Versions: 1 2 3 4 5 6 7 8 9 10 11 12 13 14 15 16 17 18 19 20 21 22 23 24 25 26 27 28 29 30 31 32 33 34 35 36 37 38 39 40 41 42 43
000
FTUS44 KHGX 180304 AAA
TAFCXO
TAF AMD
KCXO 180304Z 1803/1824 VRB02KT 6SM BR BKN004
     FM181000 VRB05KT P6SM VCTS SCT005 SCT015CB BKN250
      TEMPO 1813/1817 VRB15KT 2SM +TSRA SCT008 BKN015CB
     FM181700 11006KT P6SM VCTS SCT025CB SCT035 BKN060=

USA.gov is the U.S. government's official web portal to all federal, state and local government web resources and services.